Dewpoint
52 51 50 49 48 45 36 26 16 34 33 17 26 20 22 25 26 28 26 25 21 17 19 18 17 15 18 23 24 20 24 20 12 12 24 25 25 24 23 15 14 20 18 12
52 52 50 49 47 40 32 27 26 32 28 8 20 26 27 27 23 26 25 22 23 23 20 12 20 21 25 24 23 21 24 16 5 -0 17 26 23 26 25 20 19 19 14 8
52 52 51 49 46 43 33 25 23 25 26 26 23 21 21 23 28 27 27 23 25 23 21 22 18 20 25 26 24 27 26 21 12 -5 -4 18 20 26 26 24 21 17 19 13
51 52 51 49 46 42 31 29 26 27 23 21 22 24 23 21 21 26 26 24 24 22 17 21 21 22 24 26 26 29 25 21 21 21 21 21 19 18 23 25 23 17 12 17
49 51 51 48 46 38 31 28 28 27 26 25 22 22 21 18 19 23 22 22 19 23 19 19 16 21 23 22 27 27 27 21 24 21 21 22 21 22 21 20 23 24 23 21
49 50 51 49 45 35 30 31 32 28 27 24 24 21 19 20 22 23 22 23 21 23 23 24 23 23 23 23 24 26 25 25 21 13 17 18 13 13 20 22 22 20 18 19
49 49 51 51 47 36 32 32 31 30 31 27 27 23 22 22 22 21 21 25 23 24 28 27 26 26 26 25 26 26 24 24 23 19 17 16 12 18 19 20 21 22 21 20
49 49 50 51 49 42 36 35 31 29 33 29 29 27 26 25 24 24 23 25 27 28 25 21 20 18 23 24 25 26 25 24 21 16 15 16 15 17 16 17 11 18 21 20
48 49 49 50 51 46 40 36 35 30 33 32 28 27 24 24 24 24 24 27 29 26 23 21 18 16 14 21 25 26 25 24 21 19 16 19 14 25 24 20 10 7 19 18
48 47 47 48 49 49 44 42 37 33 34 33 29 29 30 25 24 26 25 25 27 27 23 20 19 18 18 14 20 23 23 24 22 21 19 19 21 21 22 17 20 22 18 19
49 47 45 46 48 50 47 45 39 36 34 35 32 31 28 25 26 29 28 29 28 25 23 21 21 19 19 18 20 23 22 22 20 22 19 20 23 26 32 30 26 21 21 23
50 49 46 46 45 48 48 45 42 39 37 40 36 35 34 32 34 32 28 31 28 27 24 24 23 21 21 20 22 23 21 24 24 24 24 24 24 26 28 25 24 24 24 24
48 47 47 48 48 45 48 46 41 39 39 39 38 38 39 37 33 31 31 29 29 29 29 26 27 25 27 26 22 21 22 24 21 22 24 25 25 28 28 29 27 26 26 25
46 46 46 47 45 44 45 45 43 42 42 36 38 34 36 35 37 36 31 33 32 32 32 30 32 31 31 30 28 23 24 23 22 22 25 27 30 30 30 29 29 28 28 27
46 47 48 48 47 44 43 43 45 44 43 37 38 39 39 33 34 35 35 34 33 31 30 30 31 34 30 29 28 28 26 26 26 27 28 29 30 30 29 29 28 27 27 27
45 45 46 47 47 46 44 41 46 45 46 40 33 38 37 32 31 31 31 33 33 32 30 30 32 33 30 28 27 29 29 29 29 28 29 29 29 29 29 27 27 27 28 27
44 44 44 46 47 46 41 39 42 46 46 39 33 33 34 31 31 31 31 31 31 31 31 30 30 29 31 30 27 29 30 30 30 30 30 29 28 27 27 27 27 28 27 27
42 41 43 44 44 45 43 44 46 45 42 39 32 31 34 31 30 30 32 30 31 31 30 32 30 30 30 27 29 30 30 30 29 28 28 27 27 27 26 27 26 25 23 23
41 40 40 42 43 40 40 45 46 45 41 35 32 29 28 31 29 30 30 31 27 31 28 29 30 28 26 28 29 29 28 27 27 26 27 26 25 25 25 25 23 22 20 21
41 41 39 34 40 45 44 41 38 38 38 37 31 33 30 31 29 29 29 29 27 25 27 30 27 25 27 27 28 29 28 26 25 25 23 24 24 24 24 22 23 24 24 24
40 36 36 40 44 40 38 34 32 33 29 32 32 33 29 31 29 28 29 28 26 22 23 26 23 22 24 25 26 27 26 25 25 25 25 25 25 25 25 24 23 25 25 24
39 40 41 41 36 33 30 29 30 29 27 30 29 30 32 31 33 31 30 26 26 22 25 23 20 21 23 25 26 26 26 27 27 27 26 25 25 26 26 26 25 25 24 25
38 34 33 32 30 25 24 21 26 27 29 29 29 28 31 30 32 30 28 24 23 24 21 19 19 21 23 26 27 28 28 28 29 30 28 27 28 29 28 26 26 26 26 26
28 25 21 25 21 23 23 24 22 25 27 30 30 29 29 30 28 28 24 25 23 18 17 17 19 22 25 26 27 27 25 26 27 29 31 30 27 26 27 27 26 26 26 26
26 26 19 21 24 24 25 26 27 29 28 29 29 29 29 27 25 27 25 21 18 18 16 17 21 22 25 28 28 26 25 24 23 24 26 27 26 25 26 26 26 27 27 27
29 26 22 23 22 22 23 25 28 29 30 31 31 27 24 23 24 22 21 20 16 19 22 23 22 23 23 22 23 23 26 26 26 27 26 26 25 24 24 25 25 26 27 26
26 23 25 22 21 19 18 24 24 29 30 25 27 22 19 20 20 19 21 20 19 18 21 22 21 20 19 20 22 24 24 23 22 23 25 24 23 24 24 23 23 25 26 26
Wind_Speed
18 19 21 22 20 8 5 3 3 3 2 5 4 4 4 2 3 2 2 2 2 3 2 2 2 3 6 6 6 1 2 2 7 5 1 2 2 6 8 5 6 6 2 16
16 18 19 21 20 8 4 3 1 2 1 4 5 2 3 1 2 1 1 3 3 2 3 1 3 3 2 8 7 5 6 1 8 2 1 2 5 7 6 4 3 10 6 13
17 18 19 21 19 4 4 3 2 6 7 2 5 4 3 2 1 1 1 0 1 1 3 5 2 3 2 8 5 4 7 4 10 12 4 4 7 9 16 13 8 7 24 31
16 18 21 22 20 3 4 6 3 1 5 7 5 2 3 3 2 2 2 1 6 4 2 2 4 4 2 3 4 4 3 6 7 19 26 22 25 23 18 26 23 15 10 16
17 18 20 24 24 2 7 4 2 2 2 2 2 2 3 2 2 4 3 5 1 9 6 7 4 5 4 6 4 8 2 5 4 12 8 10 20 24 26 29 30 34 36 44
16 18 17 20 25 7 5 2 2 2 1 1 1 1 3 2 2 5 5 6 3 7 17 14 12 11 4 6 10 13 6 4 5 9 8 21 12 10 23 11 9 32 25 26
13 15 16 16 19 12 4 2 3 2 1 2 3 2 4 5 6 4 2 6 5 2 1 1 1 1 3 6 9 6 7 4 2 11 17 5 1 5 9 22 13 28 20 26
11 13 13 13 13 12 6 3 2 2 3 3 3 4 5 5 4 5 5 5 2 1 2 3 6 2 1 0 1 7 3 6 4 5 6 17 3 2 4 6 9 13 29 25
6 9 11 13 10 8 4 3 3 3 1 4 2 2 2 3 3 3 2 1 2 2 1 1 3 4 2 2 1 5 4 1 7 1 4 7 2 2 2 2 4 6 10 10
3 5 8 8 10 4 2 0 3 2 2 4 6 5 2 4 2 3 2 2 2 0 3 5 7 4 3 3 4 6 5 6 18 14 8 15 14 8 3 5 6 19 5 18
5 6 8 6 5 5 1 2 4 1 3 8 9 6 8 4 5 5 4 1 1 3 5 5 4 5 4 3 5 8 13 13 9 8 8 11 10 3 2 10 15 15 20 25
6 7 9 10 8 6 5 4 3 4 4 7 7 12 16 16 10 6 7 4 5 9 5 6 3 6 5 7 10 5 9 12 10 19 13 6 8 12 13 10 22 27 23 23
5 6 7 8 8 8 6 3 5 2 3 8 4 12 10 10 18 11 8 5 8 6 5 5 5 8 6 9 11 9 8 11 7 4 20 23 21 18 17 20 18 17 21 23
7 8 8 8 7 6 7 4 5 2 3 5 7 1 6 3 9 20 21 6 3 4 4 7 8 6 11 7 10 10 8 12 10 15 26 21 23 20 16 12 17 20 18 20
8 9 10 10 10 10 10 11 11 12 6 5 7 5 7 6 12 15 14 18 13 6 6 9 9 5 4 6 6 19 15 22 17 18 22 17 17 16 21 24 16 19 19 22
8 8 8 9 11 11 1 5 5 16 10 6 5 3 5 2 3 8 11 12 9 9 7 7 6 5 9 8 10 5 17 23 25 26 22 19 19 18 13 17 20 17 16 16
8 7 9 10 11 5 5 4 1 7 6 4 7 5 1 3 5 3 3 5 5 6 5 6 5 8 9 6 25 6 9 14 21 25 12 14 12 10 18 13 13 14 15 14
10 11 10 12 12 10 10 8 11 10 2 4 6 6 3 5 3 3 2 5 4 6 5 3 5 4 7 11 15 19 22 11 14 16 10 10 16 11 9 10 11 13 16 17
10 12 15 4 5 4 3 5 10 12 10 5 7 6 5 4 2 2 3 3 6 6 8 7 9 9 13 16 19 15 10 5 13 13 7 3 4 9 12 11 13 15 20 20
9 4 2 4 2 1 3 2 4 7 7 7 7 5 9 10 7 5 3 5 6 6 10 6 7 10 11 23 23 14 7 4 2 1 5 6 10 11 14 15 15 14 18 20
3 4 4 1 3 2 3 5 8 6 5 5 4 17 22 8 9 8 8 5 5 5 5 10 6 7 10 8 6 8 10 7 6 5 7 7 10 15 17 21 19 19 19 20
2 1 0 0 2 5 6 6 5 7 6 6 5 5 4 4 4 9 7 6 7 9 8 5 5 10 4 7 9 8 7 3 6 7 8 11 13 15 18 20 21 20 21 21
1 1 2 4 6 9 8 8 5 5 5 7 6 5 4 3 6 7 6 7 9 8 6 6 9 4 7 10 8 8 3 8 10 13 12 13 16 19 19 22 19 21 20 19
6 6 6 9 9 10 11 11 5 3 2 7 6 2 6 5 4 5 5 6 6 6 6 7 5 10 14 9 8 2 6 11 14 19 21 20 19 22 20 20 20 19 22 23
7 7 8 15 8 5 2 1 1 4 3 7 3 4 5 7 7 7 6 4 6 7 6 4 6 6 12 6 4 12 15 16 18 19 20 24 24 23 23 19 20 21 22 22
8 9 8 6 4 10 7 7 7 6 6 3 2 4 3 7 5 4 6 3 6 3 1 5 3 4 11 20 20 20 20 19 20 21 18 23 23 23 23 18 19 22 21 23
7 9 11 11 6 15 15 10 13 8 7 6 5 6 11 1 4 5 5 6 11 15 11 9 14 22 23 21 20 22 22 21 22 23 23 26 23 21 21 25 26 22 22 24
Wind_Direction
9 8 4 2 2 5 62 97 45 337 42 39 47 67 119 145 166 130 116 109 120 162 186 227 212 222 220 175 153 76 163 146 268 233 29 193 184 192 169 194 213 219 264 276
7 6 5 4 4 30 109 72 352 345 66 71 70 85 76 60 127 246 157 160 180 178 198 251 223 236 250 176 167 169 174 189 308 301 30 37 232 202 189 124 127 210 202 261
8 6 3 3 7 40 83 76 42 11 56 65 104 129 124 131 60 140 197 178 116 174 219 221 248 240 199 188 196 177 163 203 221 242 233 158 220 203 200 195 211 216 228 269
16 8 3 2 6 55 94 36 65 67 16 30 72 78 151 146 179 170 179 255 224 198 255 247 244 229 203 180 213 139 186 262 241 263 268 258 256 249 218 214 217 229 274 249
10 10 6 2 5 72 74 90 115 75 88 353 32 8 202 196 204 186 208 210 239 210 236 217 250 192 216 222 171 174 183 269 312 293 273 258 260 248 233 233 235 244 259 275
9 8 9 9 7 35 83 65 66 132 348 95 99 214 186 232 198 212 208 203 198 237 251 252 253 219 240 219 181 187 182 227 343 275 309 308 286 267 206 204 212 223 236 244
7 8 7 15 23 45 98 111 100 70 228 207 224 218 216 237 230 256 223 185 190 223 143 277 263 238 232 202 215 173 165 178 231 287 328 289 178 222 200 211 236 213 242 260
9 9 9 12 22 34 77 123 86 78 296 239 279 244 241 279 257 237 241 229 210 125 36 309 317 309 290 242 230 210 174 172 264 279 287 292 304 71 139 186 301 234 234 258
17 17 15 9 11 28 75 89 113 84 336 240 213 232 205 279 273 303 232 122 134 103 129 153 256 282 316 257 90 32 148 167 203 178 275 275 8 14 237 172 289 26 221 285
328 12 3 2 360 359 25 58 163 109 279 251 175 211 209 177 188 248 247 196 168 115 180 212 217 246 174 244 208 173 169 213 222 231 258 279 263 243 344 318 293 337 295 305
288 314 328 319 331 351 208 289 200 207 231 260 202 215 204 189 192 203 175 301 186 138 188 212 231 229 230 250 188 192 190 179 194 189 226 272 206 145 176 272 302 303 305 300
271 295 316 311 298 304 194 232 181 171 220 263 221 231 228 228 212 218 205 232 175 204 186 209 219 239 219 217 264 197 245 199 191 191 228 251 202 256 284 277 287 295 299 296
290 288 290 286 289 289 233 263 166 162 269 276 246 249 254 225 229 211 224 222 207 201 214 181 214 230 182 223 233 223 236 193 238 206 258 262 275 281 285 294 288 294 295 296
290 290 283 271 265 273 274 248 217 219 276 267 286 76 235 219 197 210 209 200 115 115 169 218 213 219 197 238 245 227 218 167 217 252 276 284 274 275 275 297 301 298 304 307
306 302 293 282 273 252 255 246 215 211 228 267 277 289 243 200 193 209 213 221 221 201 200 217 223 219 210 243 264 247 217 241 240 253 269 267 274 292 314 316 314 315 314 314
308 312 307 298 296 311 199 289 221 204 203 267 265 270 244 124 166 211 221 209 211 209 198 213 221 209 200 237 253 229 209 221 237 254 273 288 289 296 301 320 316 317 314 311
298 299 297 294 295 284 206 231 99 152 135 266 285 264 264 158 135 162 184 192 204 217 230 223 216 194 205 247 254 264 253 260 279 279 300 285 290 301 307 308 315 311 300 292
296 299 295 292 291 282 258 250 171 157 210 250 252 257 273 168 186 189 192 176 174 219 236 216 203 196 207 253 255 254 254 270 275 285 291 276 288 300 308 313 305 314 326 328
292 300 297 290 205 225 239 302 203 198 213 234 217 210 264 149 155 135 183 215 234 220 217 211 183 198 217 232 255 244 225 254 295 309 295 283 310 316 326 337 336 329 324 321
298 295 250 244 199 321 318 222 193 215 220 236 229 197 240 170 178 189 190 198 236 249 225 168 225 249 238 248 247 229 234 262 269 254 359 324 321 324 322 309 302 288 291 299
164 209 230 315 332 300 228 230 212 197 242 220 221 213 235 201 212 201 213 213 216 255 235 200 240 255 241 257 247 210 184 165 202 231 271 287 289 298 304 310 308 304 303 305
179 237 203 266 244 231 230 225 219 206 228 201 205 209 223 193 169 191 195 210 193 242 152 218 256 252 227 153 135 126 142 195 260 249 271 287 294 293 293 293 297 300 302 306
40 267 230 182 204 229 217 218 221 211 206 190 187 198 202 192 205 218 201 222 228 136 197 233 235 261 186 167 128 122 192 277 282 275 273 283 288 290 277 280 277 285 292 293
197 185 229 213 216 219 204 208 217 234 149 171 181 218 204 203 202 238 236 233 157 212 221 238 258 206 186 171 119 108 290 279 284 282 277 280 285 281 267 269 279 283 292 296
193 198 221 224 232 269 268 177 236 210 191 155 174 240 207 211 227 213 228 225 242 216 243 251 314 279 188 184 257 283 277 293 288 283 280 280 279 284 282 275 283 284 286 286
201 205 234 238 222 241 237 241 256 182 171 186 221 255 231 235 224 255 222 253 245 293 196 280 270 311 285 284 285 283 276 270 273 271 275 269 272 275 277 284 279 279 279 281
208 222 218 227 223 231 233 201 236 176 182 231 218 228 230 276 233 247 218 241 271 277 266 265 276 279 280 275 268 273 268 270 277 276 270 261 266 276 283 284 283 277 270 265